"Pseudo-MPEC" for C0E8FE5

Created 2022 Nov 26 13:22:05 UT using Find_Orb

Click here for an explanation of pseudo-MPECs

 
 Astrometry: 
     C0E8FE5* C2022 11 24fFwx1HmgWrCjwju-r(g,FqwAJ(soqN6%hOM[q_TAstrometry:OQV00
     C0E8FE5  C2022 11 24^$8V,%-P9(T00'Y'UoE4]O?F!redacted;s:*$Rb.HvJUclick7[V00
     C0E8FE5  C2022 11 24NGaOLWN`nWgWW:K;##5eLej[k.s6@wwII.Rc#/@jgw_8m#ppl[vWV00
     C0E8FE5  C2022 11 24K2#3+]I%Z!))/[mfD31edpXWMN(@/XQ[jTnulrULM^0\?W#=Dh)bV00
     C0E8FE5 KC2022 11 24.32746303 14 33.650-09 05 18.40   ~BO8b       VNEOCPI52
     C0E8FE5 KC2022 11 24.34449403 14 39.570-09 03 59.80   ~BO8b 22.06GVNEOCPI52
     C0E8FE5 |C2022 11 25^ate5+xZ73%E\7./[mNqf_t*)gkTNe@=AKoV][b?5yME=blEYY*.807
     C0E8FE5 |C2022 11 25=gJ*here3%2RforE)tJR*A5e)TTexplanation([yCFEW%*?vqCZ807
     C0E8FE5 |C2022 11 25^Hl7GOeL'om=4vKhXaBX^hX;G4CgXWL#=(R(.3wU*e+VScqOvU=.807
     C0E8FE5 KC2022 11 25.29601 03 20 16.81 -07 53 38.9    ~BPBbx22.0 RoNEOCP291
     C0E8FE5 KC2022 11 25.32514 03 20 26.16 -07 51 31.7    ~BPBbx22.3 RoNEOCP291
     C0E8FE5 KC2022 11 26.22174403 25 25.194-06 48 13.68   ~BQ67 21.95GVNEOCPV06
     C0E8FE5 KC2022 11 26.22805503 25 27.084-06 47 47.72   ~BQ67 21.79GVNEOCPV06
     C0E8FE5 KC2022 11 26.23437203 25 28.974-06 47 21.98   ~BQ67 21.35GVNEOCPV06
     C0E8FE5 KC2022 11 26.24069303 25 30.853-06 46 55.42   ~BQ67 21.64GVNEOCPV06

Station data:
(291) LPL/Spacewatch II  (N31.961669 W111.599905)  US/Arizona.  Observers J.
   V. Scotti, R. S. McMillan. 1.8-m f/2.7 reflector + CCD.
(807) Cerro Tololo Observatory, La Serena  (S30.169133 W70.805900)  Chile.
   Observer R. Holmes. 0.61-m f/6.5 astrograph + CCD.
(I52) Steward Observatory, Mt. Lemmon Station  (N32.442544 W110.788920)
   US/Arizona.  Observers T. A. Pruyne, B. M. Africano, E. J. Christensen, G.
   A. Farneth, D. C. Fuls, A. R. Gibbs, A. D. Grauer, H. Gröller, J. A.
   Johnson, R. A. Kowalski, S. M. Larson, G. J. Leonard, D. Rankin, R. L.
   Seaman, F. C. Shelly, K. W. Wierzchoś. 1.0-m reflector + CCD.
(V00) Kitt Peak-Bok  (N31.963125 W111.600190)  US/Arizona.  Observers T. A.
   Pruyne, B. M. Africano, E. J. Christensen, G. A. Farneth, D. C. Fuls, A.
   R. Gibbs, A. D. Grauer, H. Gröller, J. A. Johnson, R. A. Kowalski, S. M.
   Larson, G. J. Leonard, D. Rankin, R. L. Seaman, F. C. Shelly, K. W.
   Wierzchoś. 2.25-m reflector + CCD.
(V06) Catalina Sky Survey-Kuiper  (N32.416844 W110.732550)  US/Arizona.
   Observers T. A. Pruyne, B. M. Africano, E. J. Christensen, G. A. Farneth,
   D. C. Fuls, A. R. Gibbs, A. D. Grauer, H. Gröller, J. A. Johnson, R. A.
   Kowalski, S. M. Larson, G. J. Leonard, D. Rankin, R. L. Seaman, F. C.
   Shelly, K. W. Wierzchoś. 1.55-m reflector + CCD.

Orbital elements:  C0E8FE5
   Perihelion 2022 Oct 23.50961 +/- 0.044 TT = 12:13:50 (JD 2459876.00961)
Epoch 2022 Nov 26.0 TT = JDT 2459909.5   Earth MOID: 0.0401   Ma: 0.0759
M   7.30982248 +/- 0.14             (J2000 ecliptic)          AutoNEOCP
n   0.21826627 +/- 0.0043           Peri.  226.80855 +/- 0.24
a   2.73198490 +/- 0.0342           Node   156.04339 +/- 0.19
e   0.6275348 +/- 0.0048            Incl.    3.05263 +/- 0.017
P   4.52                   H 25.1   G  0.15   U  9.1
q 1.01756911 +/- 0.000302    Q 4.44640070 +/- 0.0684
13 of 15 observations 2022 Nov. 24-26 (47.4 hr); mean residual 0".28
Residuals in arcseconds: 
221124 V00  .00   .08+    221124 I52  .71+  .23+    221125 291( 2.5-  1.4-)   
221124 V00  .04-  .36+    221125 807  .09-  .04-    221126 V06  .03+  .11+    
221124 V00  .12-  .01+    221125 807  .08+  .40-    221126 V06  .05+  .01+    
221124 V00  .40-  .04-    221125 807  .14-  .60+    221126 V06  .07+  .33-    
221124 I52  .18-  .61-    221125 291( 3.3-  2.1-)   221126 V06  .07-  .14+    

Ephemerides (geocentric):
Date (UTC) HH   RA             Dec           delta  r     elong  mag " sig PA
---- --------  ------------   ------------  ------ ------ -----  --- --------
2022 11 26 13  03 27 05.615   -06 25 41.74  .14312 1.1142 150.9 22.2 .224  13
2022 11 26 14  03 27 18.670   -06 22 52.25  .14333 1.1144 150.9 22.2 .235  14
2022 11 26 15  03 27 31.688   -06 20 03.11  .14354 1.1146 151.0 22.3 .248  15
2022 11 26 16  03 27 44.669   -06 17 14.34  .14374 1.1149 151.0 22.3 .260  16
2022 11 26 17  03 27 57.613   -06 14 25.91  .14395 1.1151 151.0 22.3 .274  17
2022 11 26 18  03 28 10.521   -06 11 37.84  .14415 1.1153 151.1 22.3 .287  18
2022 11 26 19  03 28 23.392   -06 08 50.13  .14436 1.1155 151.1 22.3 .302  19
2022 11 26 20  03 28 36.227   -06 06 02.76  .14457 1.1158 151.2 22.3 .316  20
2022 11 26 21  03 28 49.025   -06 03 15.76  .14478 1.1160 151.2 22.3 .331  21
2022 11 26 22  03 29 01.788   -06 00 29.10  .14498 1.1162 151.2 22.3 .347  22
2022 11 26 23  03 29 14.514   -05 57 42.79  .14519 1.1164 151.3 22.3 .363  22
2022 11 27 00  03 29 27.205   -05 54 56.84  .14540 1.1166 151.3 22.3 .379  23
2022 11 27 01  03 29 39.860   -05 52 11.24  .14561 1.1169 151.4 22.3 .396  24
2022 11 27 02  03 29 52.479   -05 49 25.99  .14582 1.1171 151.4 22.3 .414  24
2022 11 27 03  03 30 05.063   -05 46 41.08  .14603 1.1173 151.4 22.3 .431  25
2022 11 27 04  03 30 17.612   -05 43 56.53  .14624 1.1175 151.5 22.3 .449  25
2022 11 27 05  03 30 30.126   -05 41 12.32  .14645 1.1178 151.5 22.3 .468  26
2022 11 27 06  03 30 42.604   -05 38 28.46  .14666 1.1180 151.5 22.3 .487  26
2022 11 27 07  03 30 55.048   -05 35 44.95  .14687 1.1182 151.6 22.3 .506  27
2022 11 27 08  03 31 07.456   -05 33 01.78  .14708 1.1184 151.6 22.3 .526  27
2022 11 27 09  03 31 19.830   -05 30 18.96  .14729 1.1187 151.7 22.3 .546  28
2022 11 27 10  03 31 32.170   -05 27 36.49  .14750 1.1189 151.7 22.3 .567  28
2022 11 27 11  03 31 44.474   -05 24 54.36  .14771 1.1191 151.7 22.3 .588  28
2022 11 27 12  03 31 56.745   -05 22 12.57  .14792 1.1193 151.8 22.3 .609  29
2022 11 27 13  03 32 08.981   -05 19 31.13  .14814 1.1196 151.8 22.3 .631  29
2022 11 27 14  03 32 21.184   -05 16 50.03  .14835 1.1198 151.8 22.3 .653  29
2022 11 27 15  03 32 33.352   -05 14 09.27  .14856 1.1200 151.9 22.3 .676  30
2022 11 27 16  03 32 45.486   -05 11 28.85  .14877 1.1202 151.9 22.3 .698  30
2022 11 27 17  03 32 57.587   -05 08 48.77  .14899 1.1205 152.0 22.3 .722  30
2022 11 27 18  03 33 09.654   -05 06 09.04  .14920 1.1207 152.0 22.3 .745  30
2022 11 27 19  03 33 21.688   -05 03 29.64  .14942 1.1209 152.0 22.3 .769  31
2022 11 27 20  03 33 33.688   -05 00 50.58  .14963 1.1211 152.1 22.3 .793  31
2022 11 27 21  03 33 45.655   -04 58 11.86  .14984 1.1214 152.1 22.3 .818  31
2022 11 27 22  03 33 57.589   -04 55 33.48  .15006 1.1216 152.1 22.3 .843  31
2022 11 27 23  03 34 09.490   -04 52 55.43  .15028 1.1218 152.2 22.3 .868  32
2022 11 28 00  03 34 21.358   -04 50 17.72  .15049 1.1221 152.2 22.3 .894  32
2022 11 28 01  03 34 33.193   -04 47 40.35  .15071 1.1223 152.2 22.3 .920  32
2022 11 28 02  03 34 44.996   -04 45 03.31  .15092 1.1225 152.3 22.3 .947  32
2022 11 28 03  03 34 56.766   -04 42 26.60  .15114 1.1227 152.3 22.3 .973  32
2022 11 28 04  03 35 08.503   -04 39 50.23  .15136 1.1230 152.4 22.3 1.00  32
2022 11 28 05  03 35 20.208   -04 37 14.19  .15157 1.1232 152.4 22.3 1.03  33
2022 11 28 06  03 35 31.881   -04 34 38.48  .15179 1.1234 152.4 22.3 1.06  33
2022 11 28 07  03 35 43.522   -04 32 03.11  .15201 1.1237 152.5 22.3 1.08  33
2022 11 28 08  03 35 55.131   -04 29 28.06  .15223 1.1239 152.5 22.3 1.11  33
2022 11 28 09  03 36 06.708   -04 26 53.35  .15244 1.1241 152.5 22.4 1.14  33
2022 11 28 10  03 36 18.254   -04 24 18.97  .15266 1.1243 152.6 22.4 1.17  33
2022 11 28 11  03 36 29.768   -04 21 44.91  .15288 1.1246 152.6 22.4 1.20  33
2022 11 28 12  03 36 41.250   -04 19 11.18  .15310 1.1248 152.6 22.4 1.23  34